Location: Saint Louis
(38.6272°N, 90.1978°W)
Time: 19:18:55
(UTC-05:00)

Hubble Space Telescope - Visible Passes

Search period start: 25 September 2017 00:00
Search period end: 05 October 2017 00:00
Orbit: 538 x 541 km, 28.5° (Epoch: 25 September)

Date Brightness Start Highest point End Pass type
(mag) Time Alt. Az. Time Alt. Az. Time Alt. Az.
01 Oct 3.4 05:34:53 10° S 05:36:00 11° SSE 05:37:07 10° SSE visible
02 Oct 3.2 05:24:13 11° S 05:25:42 13° SSE 05:27:36 10° SE visible
03 Oct 3.0 05:14:45 14° S 05:15:26 15° SSE 05:17:45 10° SE visible
04 Oct 2.9 05:05:16 16° SSE 05:05:16 16° SSE 05:07:46 10° SE visible
